Location: Gull Harbor
(47.1000°N, 122.9000°W)
Time: 10:50:59
(UTC-07:00)

ISS - Pass Details

Date: 30 March 2019
Orbit: 408 x 410 km, 51.6° (Epoch: 26 April)

Event Time Altitude Azimuth Distance (km) Brightness Sun altitude
Rises 20:30:08 0° 282° (WNW) 2,338 2.4 -9.5°
Reaches altitude 10° 20:32:20 10° 291° (WNW) 1,476 0.7 -9.8°
Maximum altitude 20:35:25 35° 360° (N) 680 -2.5 -10.3°
Enters shadow 20:38:22 11° 68° (ENE) 1,426 -1.5 -10.8°
